www.pogodaiklimat.ru

Погода и климат >> Архив погоды >> Россия >> Омская область >> Черлак


ПОГОДА в Черлаке

  • Прогноз погоды в Черлаке
  • Монитор погоды в Черлаке

АРХИВ ПОГОДЫ в Черлаке

Время (UTC), дата Ветер
(напр.,м/с)
 
Видим.   Явления Облачность Т
(С)
Тd
(С)
f
(%)
Тe
(С)
Тes
(С)
Комфортность P
(гПа)
Po
(гПа)
Тmin
(С)
Tmax
(С)
R
(мм)
R24
(мм)
S
(см)
03 15.09 ЮЗ 2 20 км ясно +12.1 +10.1 88 +11 +13 1016.9 1003.0 +7.8
06 15.09 З 3 20 км 3/0
[Cc]
+21.9 +11.4 51 +24 +30 комфорт 1016.3 1002.9
09 15.09 З 2 20 км 6/6 1000 м
[Cu med, cong]
+23.5 +9.6 41 +24 +27 комфорт 1015.5 1002.2
12 15.09 СЗ 1 20 км 3/3 1000 м
[Cu med, cong]
+22.8 +9.5 43 +24 +25 комфорт 1015.3 1002.0
15 15.09 штиль 0 10 км ясно +14.5 +10.5 77 +14 +14 1016.4 1002.7 +24.6
18 15.09 Ю 1 10 км ясно +11.0 +9.0 87 +11 +11 1016.7 1002.8
21 15.09 Ю 1 10 км ясно +10.6 +7.8 83 +10 +10 1016.4 1002.5
00 16.09 Ю 1 10 км ясно +8.3 +7.0 92 +7 +7 1016.4 1002.4
03 16.09 ЮВ 1 20 км ясно +14.5 +9.7 73 +15 +17 1015.9 1002.2 +7.9
06 16.09 ЮЗ 3 20 км 8/0
[Ac trans Cc]
+24.0 +7.8 35 +24 +28 комфорт 1014.6 1001.4
09 16.09 ЮЗ 3 20 км 8/5 600 м
[Cu hum Ac cuf]
+24.2 +6.5 32 +24 +26 комфорт 1013.0 999.8
12 16.09 Ю 3 20 км 8/6 600 м
[Cb cap Ac cuf Cs]
+22.1 +6.8 37 +23 +23 комфорт 1012.3 999.0
15 16.09 ЮВ 2 10 км 4/0
[Ac cuf]
+13.6 +8.8 73 +13 +13 1012.4 998.7 +25.8
18 16.09 Ю 2 10 км ясно +14.0 +8.2 68 +14 +14 1011.6 997.9
21 16.09 ЮВ 3 10 км 4/0
[Cc]
+12.6 +7.3 70 +11 +11 1010.1 996.4
00 17.09 Ю 3 10 км 8/0
[Ac trans Cc]
+10.6 +6.9 78 +9 +9 1009.0 995.2
03 17.09 ЮЗ 2 20 км 10/6 600 м
[Cb cap Ac trans Ci fib]
+13.5 +8.3 71 +13 +13 1009.0 995.3 +10.3
06 17.09 З 3 20 км 10/5 600 м
[Cb cap As trans]
+14.7 +9.5 71 +14 +15 1010.3 996.6
09 17.09 ЮВ 5-10
{11}
20 км 10/6 600 м
[Cb cap Ac trans Ci fib]
+18.3 +4.7 41 +18 +19 1010.9 997.4
12 17.09 ЮВ 4
{13}
20 км 10/5 600 м
[Cu hum Ac trans Ci fib]
+17.3 +4.9 44 +17 +17 1011.9 998.4
15 17.09 Ю 2
{11}
10 км 8/0
[Ac trans Ci fib]
+14.0 +5.8 58 +14 +14 1012.6 998.9 +18.6
18 17.09 ЮЗ 2 10 км 10/4 1000 м
[Sc Ac trans Ci fib]
+13.0 +4.9 58 +12 +12 1013.2 999.4
21 17.09 Ю 2 10 км 10/6 1000 м
[Sc Ac trans Ci fib]
+11.3 +5.8 69 +10 +10 1013.2 999.4
00 18.09 Ю 2 10 км 10/10 600 м
[Sc]
+11.0 +6.6 74 +10 +10 1013.5 999.6
03 18.09 Ю 2 20 км 9/5 600 м
[Sc Ac trans Ci fib]
+13.9 +7.2 64 +13 +14 1013.6 999.9 +10.1
06 18.09 Ю 3 20 км 10/3 600 м
[Cb cap Ac cuf Cs]
+21.0 +6.4 39 +22 +25 комфорт 1012.6 999.2
09 18.09 ЮЗ 4 20 км 10/3 600 м
[Cb cap Cc]
+24.5 +9.4 38 +25 +27 комфорт 1010.7 997.5
12 18.09 ЮЗ 4
{13}
20 км 8/3 600 м
[Cb cap Cc]
+24.3 +7.6 34 +25 +25 комфорт 1009.7 996.5
15 18.09 Ю 2
{10}
10 км 6/0
[Ac trans Cs]
+18.5 +8.7 53 +19 +19 1009.8 996.3 +26.2
18 18.09 З 4
{11}
10 км 10/5 600 м
[Cb cap Ac trans Ci fib]
+19.6 +9.3 51 +21 +21 комфорт 1009.7 996.3
21 18.09 З 7-12
{12}
10 км 10/6 600 м
[Cb cap Ac As]
+17.9 +10.9 64 +17 +17 1010.2 996.7
00 19.09 Ю 2
{12}
4000 м слаб. ливневой дождь 10/8 600 м
[Cb cap Ac As]
+14.7 +12.1 84 +14 +14 1010.8 997.2
03 19.09 Ю 3 20 км {ливн. осадки} 9/9 600 м
[Sc]
+16.1 +12.1 77 +16 +16 1010.6 997.0 +14.4 0.0
06 19.09 ЮЗ 6-12
{13}
20 км {ливн. осадки} 6/0
[Cs]
+23.5 +8.6 39 +24 +27 комфорт 1009.4 996.2
09 19.09 ЮЗ 7-15
{15}
20 км 6/0
[Cs]
+26.6 +6.5 28 +26 +28 жарко 1007.8 994.7
12 19.09 ЮЗ 5
{15}
20 км 8/0
[Cs]
+26.5 +4.8 25 +26 +26 жарко 1005.3 992.3
15 19.09 В 5 10 км 3/0
[Cs]
+22.2 +4.7 32 +22 +22 комфорт 1003.3 990.1 +27.2
18 19.09 ЮВ 4 10 км 3/0
[Cs]
+20.0 +5.4 38 +21 +21 комфорт 1001.4 988.1
21 19.09 З 3
{12}
10 км 8/4 600 м
[Cb cap Ac trans Ci fib]
+16.3 +5.6 49 +16 +16 1002.1 988.7
00 20.09 Ю 5-10
{15}
10 км 4/3 600 м
[Cb cap Ci fib]
+13.5 +0.7 42 +12 +12 1003.7 990.1
03 20.09 З 7-15
{15}
20 км 3/3 1000 м
[Cu hum]
+12.0 +3.9 58 +9 +10 1006.5 992.7 +11.7
06 20.09 З 7-13
{16}
20 км 8/8 600 м
[Cb cap]
+14.2 +4.1 51 +12 +13 1009.3 995.6
09 20.09 ЮВ 7-15
{15}
20 км позёмок 6/6 1000 м
[Cu med, cong]
+17.0 +2.6 38 +16 +17 1011.4 997.9
12 20.09 Ю 6-13
{15}
20 км {метель} 8/8 600 м
[Cb cap]
+15.9 +1.9 39 +15 +15 1013.4 999.8
15 20.09 ЮЗ 2
{13}
10 км 6/0
[Ac trans]
+11.7 +3.1 56 +11 +11 1015.5 1001.6 +17.2
18 20.09 З 2 10 км ясно +8.0 +3.0 71 +6 +6 1016.7 1002.6
21 20.09 ЮЗ 1 10 км 3/3 300 м
[Cb cap]
+7.0 +2.3 72 +6 +6 1017.5 1003.4
00 21.09 З 2 10 км 4/0
[Ac cuf Ci fib]
+5.5 +1.6 76 +3 +3 1019.0 1004.8
03 21.09 ЮЗ 2 20 км 10/0
[Ci fib]
+7.4 +3.4 76 +5 +7 1020.5 1006.4 +4.6
06 21.09 ЮЗ 2 20 км 10/3 1000 м
[Sc Ac trans Ci fib]
+15.4 +4.9 50 +15 +18 1020.7 1007.0
09 21.09 З 3 20 км 10/5 1000 м
[Cu hum Ci fib]
+17.5 +3.0 38 +18 +19 1020.1 1006.4
12 21.09 З 1 20 км 10/0
[Ci fib]
+16.2 +1.2 36 +17 +18 1018.9 1005.2
15 21.09 В 1 10 км 4/0
[Ci fib]
+8.0 +3.5 73 +7 +7 1019.5 1005.4 +18.0
18 21.09 В 2 10 км 8/3 600 м
[Cb cap Ac trans Ci fib]
+8.8 +1.8 61 +7 +7 1017.7 1003.7

 

Местоположение метеостанции Черлак (Омская область, Россия): широта 54.17 долгота 74.80 высота над уровнем моря 115 м.

В архиве по умолчанию представлена погода в Черлаке за последнюю неделю. Архивные данные за месяц целиком и за предыдущие месяцы, начиная с января 2011 года, Вы можете получить, выбрав интересующий диапазон дат из раскрывающегося списка и нажав кнопку "Ввод!".


*Определитесь, кто Вы:
робот инопланетянин человек

Внимание! Время в таблицах - всемирное. Для получения местного времени необходимо прибавить поправку, которая равна 6 ч.

Смотрите также архив погоды в соседних городах и на ближайших метеорологических станциях:

Погода в Любимовке (Омская область, Россия) (59 км)
Погода в Русской Поляне (Омская область, Россия) (74 км)
Погода в Павлоградке (Омская область, Россия) (80 км)
Погода в Калачинске (Омская область, Россия) (97 км)
Погода в Иртышске (Павлодарская область, Казахстан) (101 км)
Погода в Одесском (Омская область, Россия) (119 км)
Погода в Михайловке (Акмолинская область, Казахстан) (120 км)
Погода в Голубовке (Павлодарская область, Казахстан) (120 км)
Погода в Чистоозерном (Новосибирская область, Россия) (129 км)
Погода в Омске (Омская область, Россия) (132 км)

Пояснения к столбцам:

Ветер - указаны скорость ветра в м/с - средняя за 10 мин, порывы в срок и между сроками (в фигурных скобках) и направление, откуда дует ветер: С - северный, СВ - северо-восточный, В - восточный, ЮВ - юго-восточный, Ю - южный, ЮЗ - юго-западный, З - западный, СЗ - северо-западный.
Видимость - горизонтальная дальность видимости в метрах или километрах. При видимости от 1 до 10 км при отсутствии осадков обычно наблюдается дымка, при ухудшении видимости до 1 км и менее - туман. В сухую погоду видимость может ухудшаться дымом, пылью или мглою.
Явления - указаны атмосферные явления, наблюдавшиеся в срок или в последний час перед сроком; фигурными скобками обозначены явления, наблюдавшиеся между сроками (за 1-3 часа до срока); квадратными скобками обозначены град или гололедные отложения с указанием их диаметра в мм.
Облачность - указаны через наклонную черту общая и нижняя облачность в баллах и высота нижней границы облаков в метрах; квадратными скобками обозначены формы облаков: Ci - перистые, Cs - перисто-слоистые, Cc - перисто-кучевые, Ac - высококучевые, As - высокослоистые, Sc - слоисто-кучевые, Ns - слоисто-дождевые, Cu - кучевые, Cb - кучево-дождевые. Подробнее классификацию облаков см. в Атласе облаков (PDF).
T - Температура воздуха - температура, измеренная на высоте 2 м над землей.
Td - Температура точки росы - температура, при понижении до которой содержащийся в воздухе водяной пар достигнет насыщения.
f - Относительная влажность воздуха - влажноcть воздуха, измеренная на высоте 2 м над землей.
Te - Эффективная температура - температура, которую ощущает одетый по сезону человек в тени. Характеристика душности погоды. При расчете учитывается влияние влажности воздуха и скорости ветра на теплоощущения человека.
Tes - Эффективная температура на солнце - температура, которую ощущает человек, с поправкой на солнечный нагрев. Характеристика знойности погоды. Зависит от высоты солнца над горизонтом, облачности и скорости ветра. Ночью, в пасмурную погоду, а также при ветре 12 м/с и более поправка равна нулю.
P - Атмосферное давление - приведенное к уровню моря атмосферное давление.
Po - Атмосферное давление - измеренное на уровне метеостанции атмосферное давление.
Tmin - Минимальная температура - минимум температуры воздуха на высоте 2 м над землей.
Tmax - Максимальная температура - максимум температуры воздуха на высоте 2 м над землей.
R - Количество осадков - Количество выпавших осадков за период времени, мм. При наведении курсора мыши на число - период времени, за который выпало указанное количество осадков.
R24 - Количество осадков - Количество выпавших осадков за 24 часа, мм.
S - Снежный покров - Высота снежного покрова, см. При наведении курсора мыши на число - состояние снежного покрова и степень покрытия местности в баллах.